Starkville, MS

10:14 PM CDT on May 25, 2017 (GMT -0500)
Bryan

Weather History for KSTF - January, 2014

Change the Weather History Date:

Sunday, January 5, 2014

  Actual Average Record
Temperature  
Mean Temperature 44 °F -  
Max Temperature 59 °F 50 °F 60 °F (2012)
Min Temperature 26 °F 30 °F 26 °F (2014)
Degree Days  
Heating Degree Days 22    
Moisture  
Dew Point 37 °F    
Average Humidity 86    
Maximum Humidity 100    
Minimum Humidity 72    
Precipitation  
Precipitation 0.14 in - - ()
Sea Level Pressure  
Sea Level Pressure 29.97 in    
Wind  
Wind Speed 8 mph (South)    
Max Wind Speed 15 mph    
Max Gust Speed 32 mph    
Visibility 9 miles    
Events Rain    
Averages and records for this station are not official NWS values.
T = Trace of Precipitation, MM = Missing Value Source: NWS Daily Summary

Daily Weather History Graph

Daily Weather History Graph

Search for Another Location

Airport or City:

Trip Planner

Search our weather history database for the weather conditions in past years. The results will help you decide how hot, cold, wet, or windy it might be!

Date:

Astronomy

Jan. 05, 2014 Rise Set
Actual Time 7:00 AM CST 5:01 PM CST
Civil Twilight 6:32 AM CST 5:29 PM CST
Nautical Twilight 6:01 AM CST 6:00 PM CST
Astronomical Twilight 5:31 AM CST 6:30 PM CST
Moon 9:56 AM CST (1/5) 10:12 PM CST (1/5)
Length of Visible Light 10h 56m
Length of Day
10h 01m
Waxing Crescent, 25% of the Moon is Illuminated
Jan 5
Waxing Crescent
Jan 7
First Quarter
Jan 15
Full
Jan 23
Last Quarter
Jan 30
New

Hourly Weather History & Observations

Time (CST) Temp. Windchill Dew Point Humidity Pressure Visibility Wind Dir Wind Speed Gust Speed Precip Events Conditions
12:15 AM 37.4 °F 33.8 °F 33.8 °F 87% 30.07 in 10.0 mi SE 4.6 mph - N/A   Clear
12:35 AM 37.4 °F 33.8 °F 32.0 °F 81% 30.07 in 10.0 mi ESE 4.6 mph - N/A   Clear
12:55 AM 35.6 °F 30.7 °F 32.0 °F 87% 30.08 in 10.0 mi SE 5.8 mph - N/A   Clear
1:15 AM 37.4 °F 33.8 °F 33.8 °F 87% 30.08 in 10.0 mi SE 4.6 mph - N/A   Mostly Cloudy
1:35 AM 37.4 °F 32.8 °F 33.8 °F 87% 30.07 in 10.0 mi SE 5.8 mph - N/A   Overcast
1:55 AM 37.4 °F 32.1 °F 33.8 °F 87% 30.08 in 10.0 mi SE 6.9 mph - N/A   Overcast
2:15 AM 35.6 °F 29.9 °F 33.8 °F 93% 30.07 in 10.0 mi SE 6.9 mph - N/A   Mostly Cloudy
2:35 AM 35.6 °F 30.7 °F 33.8 °F 93% 30.06 in 10.0 mi ESE 5.8 mph - N/A   Mostly Cloudy
2:55 AM 35.6 °F 30.7 °F 33.8 °F 93% 30.06 in 10.0 mi SE 5.8 mph - N/A   Overcast
3:15 AM 37.4 °F 32.1 °F 33.8 °F 87% 30.05 in 10.0 mi SE 6.9 mph - N/A   Overcast
3:35 AM 37.4 °F 32.8 °F 33.8 °F 87% 30.04 in 10.0 mi SE 5.8 mph - N/A   Overcast
3:55 AM 37.4 °F 32.1 °F 35.6 °F 93% 30.03 in 10.0 mi SE 6.9 mph - N/A   Overcast
4:15 AM 37.4 °F 31.4 °F 35.6 °F 93% 30.02 in 10.0 mi SE 8.1 mph - N/A   Overcast
4:35 AM 37.4 °F 30.8 °F 35.6 °F 93% 30.01 in 10.0 mi SSE 9.2 mph - N/A   Overcast
4:55 AM 37.4 °F 32.1 °F 35.6 °F 93% 30.01 in 10.0 mi SSE 6.9 mph - N/A   Overcast
5:15 AM 37.4 °F 31.4 °F 35.6 °F 93% 30.01 in 10.0 mi SE 8.1 mph - N/A   Overcast
5:35 AM 37.4 °F 31.4 °F 35.6 °F 93% 30.00 in 10.0 mi SE 8.1 mph - N/A   Overcast
5:55 AM 37.4 °F 31.4 °F 35.6 °F 93% 30.00 in 10.0 mi SE 8.1 mph - N/A   Overcast
6:15 AM 37.4 °F 31.4 °F 35.6 °F 93% 29.99 in 10.0 mi SSE 8.1 mph - N/A   Overcast
6:35 AM 39.2 °F 33.0 °F 35.6 °F 87% 29.99 in 10.0 mi SSE 9.2 mph - N/A   Overcast
6:55 AM 39.2 °F 33.0 °F 35.6 °F 87% 29.99 in 10.0 mi SSE 9.2 mph - N/A   Overcast
7:15 AM 39.2 °F 33.0 °F 35.6 °F 87% 29.99 in 10.0 mi SSE 9.2 mph - N/A   Overcast
7:35 AM 39.2 °F 34.2 °F 35.6 °F 87% 29.99 in 10.0 mi SE 6.9 mph - N/A   Overcast
7:55 AM 41.0 °F 36.4 °F 35.6 °F 81% 30.00 in 10.0 mi SSE 6.9 mph - N/A   Overcast
8:15 AM 41.0 °F 35.8 °F 35.6 °F 81% 29.99 in 10.0 mi SSE 8.1 mph - N/A   Overcast
8:35 AM 41.0 °F 35.2 °F 35.6 °F 81% 29.99 in 10.0 mi SSE 9.2 mph - N/A   Overcast
8:55 AM 42.8 °F 35.8 °F 37.4 °F 81% 29.97 in 10.0 mi SSE 13.8 mph 18.4 mph N/A   Overcast
9:15 AM 42.8 °F 35.4 °F 37.4 °F 81% 29.96 in 10.0 mi SE 15.0 mph 21.9 mph N/A   Overcast
9:35 AM 42.8 °F 35.8 °F 37.4 °F 81% 29.96 in 10.0 mi SSE 13.8 mph 21.9 mph N/A   Overcast
9:55 AM 44.6 °F 37.8 °F 39.2 °F 81% 29.96 in 10.0 mi SSE 15.0 mph - N/A   Overcast
10:15 AM 44.6 °F 37.8 °F 41.0 °F 87% 29.94 in 10.0 mi SSE 15.0 mph 19.6 mph N/A   Mostly Cloudy
10:35 AM 46.4 °F 40.4 °F 41.0 °F 81% 29.92 in 10.0 mi SSE 13.8 mph 20.7 mph N/A   Scattered Clouds
10:55 AM 48.2 °F - 42.8 °F 82% 29.91 in 10.0 mi SSE 13.8 mph - N/A   Scattered Clouds
11:15 AM 48.2 °F - 42.8 °F 82% 29.90 in 10.0 mi SSE 12.7 mph 18.4 mph N/A   Mostly Cloudy
11:35 AM 50.0 °F - 42.8 °F 76% 29.87 in 10.0 mi SSE 13.8 mph 18.4 mph N/A   Overcast
11:55 AM 50.0 °F - 44.6 °F 82% 29.85 in 10.0 mi SSE 9.2 mph - N/A   Overcast
12:15 PM 51.8 °F - 44.6 °F 76% 29.82 in 10.0 mi SSE 11.5 mph - N/A   Mostly Cloudy
12:35 PM 53.6 °F - 46.4 °F 77% 29.79 in 10.0 mi SSE 13.8 mph 18.4 mph N/A   Scattered Clouds
12:55 PM 55.4 °F - 46.4 °F 72% 29.78 in 10.0 mi SSE 12.7 mph - N/A   Scattered Clouds
1:15 PM 57.2 °F - 48.2 °F 72% 29.76 in 10.0 mi South 12.7 mph 18.4 mph N/A   Mostly Cloudy
1:35 PM 59.0 °F - 50.0 °F 72% 29.75 in 10.0 mi South 11.5 mph 17.3 mph N/A   Overcast
1:55 PM 57.2 °F - 50.0 °F 77% 29.76 in 10.0 mi South 5.8 mph 16.1 mph N/A Rain Light Rain
2:15 PM 57.2 °F - 51.8 °F 82% 29.76 in 7.0 mi South 8.1 mph 16.1 mph 0.01 in Rain Rain
2:35 PM 55.4 °F - 51.8 °F 88% 29.75 in 10.0 mi South 5.8 mph - 0.01 in Rain Light Rain
2:55 PM 55.4 °F - 51.8 °F 88% 29.75 in 10.0 mi South 4.6 mph - 0.01 in Rain Light Rain
3:15 PM 55.4 °F - 53.6 °F 94% 29.74 in 10.0 mi South 4.6 mph - N/A Rain Light Rain
3:35 PM 57.2 °F - 53.6 °F 88% 29.74 in 10.0 mi SSW 5.8 mph - N/A Rain Rain
3:55 PM 57.2 °F - 53.6 °F 88% 29.76 in 3.0 mi SW 8.1 mph - 0.01 in   Drizzle
4:15 PM 55.4 °F - 53.6 °F 94% 29.78 in 3.0 mi West 8.1 mph 16.1 mph 0.04 in Rain Heavy Rain
4:35 PM 46.4 °F 40.4 °F 44.6 °F 93% 29.82 in 5.0 mi WNW 13.8 mph 32.2 mph 0.08 in Rain Rain
4:55 PM 44.6 °F 40.2 °F 42.8 °F 93% 29.85 in 5.0 mi WNW 8.1 mph 23.0 mph 0.09 in   Drizzle
5:15 PM 42.8 °F 35.8 °F 41.0 °F 93% 29.87 in 5.0 mi WNW 13.8 mph 18.4 mph N/A   Drizzle
5:35 PM 42.8 °F 38.0 °F 41.0 °F 93% 29.88 in 7.0 mi WNW 8.1 mph 23.0 mph 0.01 in   Heavy Drizzle
5:55 PM 39.2 °F 32.5 °F 37.4 °F 93% 29.92 in 7.0 mi NW 10.4 mph 24.2 mph 0.01 in Rain Rain
6:15 PM 37.4 °F 28.5 °F 35.6 °F 93% 29.94 in 7.0 mi WNW 15.0 mph 21.9 mph 0.02 in Rain Light Rain
6:35 PM 35.6 °F 28.0 °F 35.6 °F 100% 29.96 in 10.0 mi WNW 10.4 mph 26.5 mph 0.02 in   Overcast
6:55 PM 35.6 °F 26.6 °F 33.8 °F 93% 29.98 in 7.0 mi WNW 13.8 mph 25.3 mph 0.02 in   Overcast
7:15 PM 32.0 °F 22.5 °F 32.0 °F 100% 30.01 in 10.0 mi WNW 12.7 mph 23.0 mph N/A   Overcast
7:35 PM 32.0 °F 21.6 °F 30.2 °F 93% 30.03 in 10.0 mi WNW 15.0 mph 27.6 mph N/A   Overcast
7:55 PM 32.0 °F 22.1 °F 28.4 °F 87% 30.06 in 10.0 mi NW 13.8 mph 27.6 mph N/A   Overcast
8:15 PM 30.2 °F 19.3 °F 26.6 °F 86% 30.07 in 10.0 mi WNW 15.0 mph 25.3 mph N/A   Overcast
8:35 PM 30.2 °F 19.3 °F 26.6 °F 86% 30.09 in 10.0 mi NW 15.0 mph 23.0 mph N/A   Overcast
8:55 PM 30.2 °F 22.6 °F 26.6 °F 86% 30.11 in 10.0 mi NW 8.1 mph 21.9 mph N/A   Overcast
9:15 PM 30.2 °F 19.8 °F 23.0 °F 75% 30.12 in 10.0 mi NW 13.8 mph 26.5 mph N/A   Overcast
9:35 PM 28.4 °F 19.1 °F 24.8 °F 86% 30.13 in 10.0 mi NW 10.4 mph 20.7 mph N/A   Overcast
9:55 PM 28.4 °F 19.1 °F 23.0 °F 80% 30.14 in 10.0 mi WNW 10.4 mph 23.0 mph N/A   Overcast
10:15 PM 28.4 °F 17.5 °F 23.0 °F 80% 30.15 in 10.0 mi NW 13.8 mph 20.7 mph N/A   Overcast
10:35 PM 28.4 °F 20.4 °F 23.0 °F 80% 30.16 in 10.0 mi WNW 8.1 mph 17.3 mph N/A   Overcast
10:55 PM 28.4 °F 21.2 °F 23.0 °F 80% 30.17 in 10.0 mi NW 6.9 mph 17.3 mph N/A   Overcast
11:15 PM 28.4 °F 19.1 °F 21.2 °F 74% 30.18 in 10.0 mi NW 10.4 mph 26.5 mph N/A   Overcast
11:35 PM 28.4 °F 18.5 °F 21.2 °F 74% 30.19 in 10.0 mi NNW 11.5 mph 20.7 mph N/A   Overcast
11:55 PM 26.6 °F 14.7 °F 19.4 °F 74% 30.20 in 10.0 mi NW 15.0 mph 21.9 mph N/A   Overcast